Location: Boiro
(42.6475°N, 8.8834°W)
Time: 08:32:41
(UTC+02:00)

NANOSAT C BR1 - Pass Details

Date: 24 August 2022
Orbit: 582 x 600 km, 98.0° (Epoch: 25 September)

Event Time Altitude Azimuth Distance (km) Brightness Sun altitude
Rises 06:11:34 0° 353° (N) 2,831 ? -17.4°
Reaches altitude 10° 06:14:45 10° 326° (NNW) 1,919 ? -17.0°
Maximum altitude 06:16:43 13° 298° (WNW) 1,709 ? -16.7°
Enters shadow 06:16:53 13° 295° (WNW) 1,710 ? -16.6°
